This is the latest recevied weather packets stored in our database for station/object PA3GJX-13. If no packets are shown the sender has not sent any weather packets the latest 10 day(s).
| Time | Temp. | Humidity | Pressure | Rain* | Wind** | Luminosity | Snow |
|---|---|---|---|---|---|---|---|
| 1777654539 | 32.78° C | 18% | 1034.6 hPa | - | - | - | - |
| 1777653339 | 32.78° C | 18% | 1034.8 hPa | - | - | - | - |
| 1777652139 | 32.78° C | 19% | 1035 hPa | - | - | - | - |
| 1777650939 | 32.22° C | 19% | 1035.1 hPa | - | - | - | - |
| 1777649739 | 32.22° C | 19% | 1035.4 hPa | - | - | - | - |
| 1777648539 | 31.67° C | 21% | 1035.6 hPa | - | - | - | - |
| 1777647339 | 31.11° C | 21% | 1035.7 hPa | - | - | - | - |
| 1777646139 | 31.67° C | 21% | 1036 hPa | - | - | - | - |
| 1777644939 | 31.11° C | 20% | 1036.2 hPa | - | - | - | - |
| 1777643739 | 30° C | 22% | 1036.4 hPa | - | - | - | - |
| 1777642539 | 30° C | 22% | 1036.6 hPa | - | - | - | - |
| 1777641338 | 29.44° C | 22% | 1036.9 hPa | - | - | - | - |
| 1777640139 | 28.89° C | 23% | 1037.3 hPa | - | - | - | - |
| 1777638938 | 28.33° C | 23% | 1037.6 hPa | - | - | - | - |
| 1777637738 | 28.33° C | 23% | 1037.8 hPa | - | - | - | - |
| 1777636538 | 27.78° C | 24% | 1038.1 hPa | - | - | - | - |
| 1777635338 | 27.22° C | 24% | 1038.3 hPa | - | - | - | - |
| 1777634138 | 26.67° C | 25% | 1038.5 hPa | - | - | - | - |
| 1777632938 | 26.11° C | 25% | 1038.7 hPa | - | - | - | - |
| 1777631738 | 25.56° C | 25% | 1038.9 hPa | - | - | - | - |
| 1777630538 | 24.44° C | 25% | 1039.2 hPa | - | - | - | - |
| 1777629338 | 23.89° C | 25% | 1039.3 hPa | - | - | - | - |
| 1777628138 | 23.33° C | 26% | 1039.5 hPa | - | - | - | - |
| 1777626938 | 22.78° C | 26% | 1039.7 hPa | - | - | - | - |
| 1777625738 | 22.22° C | 26% | 1039.8 hPa | - | - | - | - |
* Rain since midnight (hover to see other rain measurements)
** Current wind speed in m/s (hover to see current wind gust speed)